sat.trackr.live / text

‹ back to catalog

HERMES-5

NORAD 63834 · 2025-052BQ

PAYLOAD ACTIVE UNKNOWN

§ Identity

Operator
Country
IT
Launch date
2025-03-15
Launch site
AFWTR
Launch vehicle
Mass (kg)
RCS (m²)

External: N2YO · Heavens-Above · Gunter

§ Orbital elements

Epoch: 2026-09-21T22:45:06.686784Z

Period
94.11 min
Inclination
97.3829°
Eccentricity
0.0004761
Mean motion
15.30162323 rev/d
Perigee alt
472.1 km
Apogee alt
478.6 km
Semi-major
6,853.5 km
B*
1.5038e-4
RAAN
158.7987°
Arg perigee
141.9357°
Mean anomaly
218.2220°
Rev number
8,474

§ Raw data

HERMES-51 63834U 25052BQ  26264.94799406  .00004313  00000+0  15038-3 0  99962 63834  97.3829 158.7987 0004761 141.9357 218.2220 15.30162323 84743

JSON: /api/v1/satellites/63834 · /tle

For live sub-satellite position, see the globe view (requires WebGL).

§ Visibility from observer

Set your observer location to see the next 7 days of passes ≥ 10°. The values pass through the URL so the page stays shareable.

No JS? Fill the form by hand. The geolocation button needs JavaScript.

§ Radio — SatNOGS DB

ModeDescriptionDownlinkUplink
GFSK Mode U - Transmitter 401.500 MHz

1 transmitter · refreshed weekly from db.satnogs.org